This demonstration page uses our WeatherBlox Daily Observations layout. Learn more.

Left ArrowRight Arrow

47.50024, -111.30081

Hourly Observations for April 26, 2016

Temp ( °F °C ) Dew Point ( °F °C ) Humidity (%) Winds ( mph kmh ) Pressure ( in mb ) Visibility ( mi km ) Precip ( " mm )
12:20 am 00:20 Cloudy with Mist and Fog 36 2 34 1 93 93 NNE 5 7 30.00 1016 5 8 0.00 0.00
12:53 am 00:53 Cloudy with Mist and Fog 36 2.2 35 1.7 97 97 Calm 30.04 1017 6 10 0.00 0.00
1:00 am 01:00 Cloudy 36 2 36 2 100 100 NNE 3 6 30.03 1017 7 11 0.00 0.00
1:39 am 01:39 Cloudy with Mist and Fog 35 1.7 33 0.6 93 93 Calm 30.06 1018 6 10 0.00 0.00
1:53 am 01:53 Cloudy 36 2.2 35 1.7 97 97 Calm 30.03 1017 8 13 0.00 0.00
2:00 am 02:00 Cloudy 36 2 36 2 100 100 Calm 30.00 1016 8 13 0.00 0.00
2:12 am 02:12 Cloudy 36 2 34 1 93 93 Calm 30.00 1016 9 14 0.00 0.00
2:22 am 02:22 Cloudy 36 2 34 1 93 93 Calm 30.00 1016 10 16 0.00 0.00
2:53 am 02:53 Cloudy 36 2.2 34 1.1 93 93 W 3 6 30.02 1017 10 16 0.00 0.00
3:53 am 03:53 Cloudy 36 2.2 34 1.1 93 93 NW 6 9 30.02 1017 10 16 0.00 0.00
4:08 am 04:08 Cloudy 36 2 34 1 93 93 NW 7 11 30.00 1016 10 16 0.00 0.00
4:38 am 04:38 Cloudy 36 2 34 1 93 93 NNW 9 15 30.03 1017 10 16 0.00 0.00
4:48 am 04:48 Cloudy 36 2 34 1 93 93 NNW 12 19 30.03 1017 10 16 0.00 0.00
4:53 am 04:53 Cloudy 35 1.7 33 0.6 93 93 NNW 10 17 30.04 1017 10 16 0.00 0.00
5:21 am 05:21 Cloudy 35 1.7 33 0.6 93 93 N 8 13 30.06 1018 10 16 0.00 0.00
5:41 am 05:41 Cloudy 35 1.7 33 0.6 93 93 N 7 11 30.06 1018 10 16 0.00 0.00
5:53 am 05:53 Cloudy 34 1.1 32 0 92 92 N 7 11 30.05 1018 10 16 0.00 0.00
6:04 am 06:04 Cloudy 34 1 34 1 100 100 N 8 13 30.06 1018 10 16 0.00 0.00
6:10 am 06:10 Cloudy 34 1 32 0 93 93 N 8 13 30.06 1018 10 16 0.00 0.00
6:53 am 06:53 Cloudy 34 1.1 32 0 92 92 N 7 11 30.06 1018 10 16 0.00 0.00
7:09 am 07:09 Cloudy 34 1.1 32 0 92 92 N 5 7 30.06 1018 10 16 0.00 0.00
7:18 am 07:18 Cloudy 34 1 32 0 93 93 N 6 9 30.06 1018 10 16 0.00 0.00
7:53 am 07:53 Cloudy 34 1.1 32 0 92 92 N 5 7 30.08 1019 10 16 0.00 0.00
8:53 am 08:53 Cloudy with Light Wintry Mix 34 1.1 31 -0.6 89 89 NW 3 6 30.09 1019 10 16 0.00 0.03
9:25 am 09:25 Cloudy 35 1.7 31 -0.6 85 85 WNW 6 9 30.09 1019 10 16 0.00 0.03
9:53 am 09:53 Cloudy 35 1.7 31 -0.6 85 85 WNW 5 7 30.08 1019 10 16 0.00 0.03
10:16 am 10:16 Cloudy with Light Snow 36 2 30 -1 81 81 NW 5 7 30.09 1019 6 10 0.00 0.00
10:37 am 10:37 Cloudy with Light Snow 34 1.1 31 -0.6 89 89 NNW 5 7 30.09 1019 2 3 0.01 0.25
10:48 am 10:48 Cloudy with Light Snow 36 2 34 1 93 93 NW 5 7 30.09 1019 3 5 0.01 0.25
10:53 am 10:53 Cloudy with Light Snow 35 1.7 33 0.6 93 93 NW 5 7 30.09 1019 3 5 0.01 0.25
11:21 am 11:21 Cloudy with Light Rain 35 1.7 33 0.6 93 93 W 3 6 30.09 1019 7 11 0.01 0.25
11:53 am 11:53 Cloudy with Light Rain 36 2.2 33 0.6 89 89 WNW 7 11 30.09 1019 10 16 0.01 0.25
12:49 pm 12:49 Cloudy 37 3 34 1 87 87 NW 9 15 30.06 1018 10 16 0.01 0.25
12:53 pm 12:53 Cloudy 37 2.8 33 0.6 86 86 WNW 9 15 30.08 1019 10 16 0.01 0.25
1:06 pm 13:06 Cloudy 37 3 34 1 87 87 NNW 8 13 30.06 1018 10 16 0.00 0.00
1:53 pm 13:53 Cloudy with Light Rain 38 3.3 33 0.6 83 83 NW 7 11 30.07 1018 10 16 0.00 0.03
2:20 pm 14:20 Cloudy with Light Rain 37 3 34 1 87 87 NW 8 13 30.06 1018 9 14 0.00 0.00
2:53 pm 14:53 Cloudy with Light Rain 38 3.3 33 0.6 83 83 NNW 6 9 30.08 1019 10 16 0.01 0.25
3:53 pm 15:53 Cloudy 40 4.4 34 1.1 79 79 N 7 11 30.06 1018 10 16 0.00 0.03
4:53 pm 16:53 Cloudy 41 5 34 1.1 76 76 N 7 11 30.06 1018 10 16 0.00 0.00
5:53 pm 17:53 Cloudy 41 5 34 1.1 76 76 NE 7 11 30.06 1018 10 16 0.00 0.00
6:03 pm 18:03 Cloudy 43 6 34 1 71 71 NNE 7 11 29.97 1015 10 16 0.00 0.00
6:53 pm 18:53 Cloudy 41 5 33 0.6 73 73 NE 6 9 30.06 1018 10 16 0.00 0.00
7:17 pm 19:17 Cloudy 41 5 34 1.1 76 76 ENE 8 13 30.00 1016 10 16 0.00 0.00
7:53 pm 19:53 Cloudy 40 4.4 35 1.7 83 83 NE 6 9 30.08 1019 10 16 0.00 0.00
8:15 pm 20:15 Cloudy 39 3.9 34 1.1 82 82 NE 7 11 30.06 1018 10 16 0.00 0.00
8:53 pm 20:53 Cloudy 39 3.9 34 1.1 82 82 NE 5 7 30.08 1019 10 16 0.00 0.00
9:53 pm 21:53 Cloudy 39 3.9 34 1.1 82 82 ENE 3 6 30.08 1019 10 16 0.00 0.00
10:23 pm 22:23 Cloudy 38 3.3 35 1.7 89 89 E 5 7 30.06 1018 10 16 0.00 0.00
10:39 pm 22:39 Cloudy 38 3.3 35 1.7 89 89 E 6 9 30.06 1018 10 16 0.00 0.00
10:53 pm 22:53 Cloudy 38 3.3 35 1.7 89 89 E 5 7 30.08 1019 10 16 0.00 0.00
11:20 pm 23:20 Cloudy 37 3 36 2 93 93 E 5 7 30.03 1017 10 16 0.00 0.00
11:53 pm 23:53 Cloudy 37 2.8 35 1.7 93 93 ESE 3 6 30.06 1018 10 16 0.00 0.00

Powered by AerisWeather